Terminal Aerodrome Forecast
Issued by NWS Duluth, MN

Home | Current Version | Previous Version | Text Only | Print | Product List | Glossary On
Versions: 1 2 3 4 5 6 7 8 9 10 11 12 13 14 15 16 17 18 19 20 21 22 23 24 25 26 27 28 29 30 31 32 33 34 35 36 37 38 39 40 41 42 43 44 45 46 47 48 49 50
000
FTUS43 KDLH 171900 AAA
TAFDLH
TAF AMD
KDLH 171946Z 1720/1818 09014G22KT P6SM VCSH OVC010
     FM180200 11013KT 4SM -RA BR OVC009
     FM180600 12005KT 1 1/2SM BR OVC007
     FM180800 12005KT 1/2SM -DZ FG OVC001
     FM181500 15005KT 1 1/2SM -DZ BR OVC003=

USA.gov is the U.S. government's official web portal to all federal, state and local government web resources and services.